Regional Weather Roundup
Issued by NWS Albany, NY

Home | Current Version | Previous Version | Text Only | Print | Product List | Glossary On
Versions: 1 2 3 4 5 6 7 8 9 10 11 12 13 14 15 16 17 18 19 20 21 22 23 24 25 26 27 28 29 30 31 32 33 34 35 36 37 38 39 40 41 42 43 44 45 46 47 48 49 50
000
ASUS41 KALY 250610
RWRALY

NEW YORK STATE HOURLY WEATHER ROUNDUP
NATIONAL WEATHER SERVICE ALBANY NY
200 AM EDT WED APR 25 2018

NOTE: "FAIR" INDICATES FEW OR NO CLOUDS BELOW 12,000 FEET WITH NO
SIGNIFICANT WEATHER AND/OR NO OBSTRUCTIONS TO VISIBILITY.

NYZ032-033-038>043-046>054-057>066-NYZ062>081-082-084-250700-
EAST


CITY           SKY/WX    TMP DP  RH WIND       PRES   REMARKS
ALBANY         LGT RAIN  51  45  79 S5        30.16F
GLENS FALLS    MOCLDY    54  41  61 SW8       30.14F
POUGHKEEPSIE   LGT RAIN  49  46  90 CALM      30.11F
NEWBURGH       LGT RAIN  48  48 100 E5        30.12F
MONTGOMERY     LGT RAIN  48  45  89 N7        30.10F
WHITE PLAINS   LGT RAIN  50  46  86 E8        30.09F
ISLIP          CLOUDY    54  51  90 E12       30.10F
NEW YORK CITY  LGT RAIN  52  48  86 NE12      30.09F
CENTRAL PARK   LGT RAIN  54  52  93 VRB6      30.10F
$$

NYZ005>009-017-018-044>046-055-056-250700-
CENTRAL


CITY           SKY/WX    TMP DP  RH WIND       PRES   REMARKS
FULTON         LGT RAIN  54  44  69 S9        30.07F
SYRACUSE       LGT RAIN  52  47  83 SE6       30.07F
ROME           LGT RAIN  54  44  69 S14       30.11F
ELMIRA         LGT RAIN  51  49  92 E9        30.02F
BINGHAMTON     LGT RAIN  46  44  93 SE8       30.04F
MONTICELLO     RAIN      45  44  97 E7        30.10F
$$

NYZ026>034-041>043-087-250700-
NORTH


CITY           SKY/WX    TMP DP  RH WIND       PRES   REMARKS
WATERTOWN      CLOUDY    52  39  61 CALM      30.04F
FORT DRUM      NOT AVBL
OGDENSBURG     FAIR      53  41  63 CALM      30.04F
MASSENA        CLOUDY    60  37  42 S12       30.05F
SARANAC LAKE   CLOUDY    47  32  56 SW5       30.07F
PLATTSBURGH    FAIR      51  35  54 S7        30.06F
$$

NYZ001>004-010>016-019>021-085-250700-
WEST


CITY           SKY/WX    TMP DP  RH WIND       PRES   REMARKS
NIAGARA FALLS  LGT RAIN  51  46  83 E8        29.98F
BUFFALO        LGT RAIN  50  48  93 E7        29.99F
DUNKIRK        LGT RAIN  48  47  96 N10       29.96F
WELLSVILLE     CLOUDY    47  46  97 SE9       30.00F
ROCHESTER      LGT RAIN  51  49  92 SE7       30.03F
PENN YAN       LGT RAIN  49  46  90 E3        30.04F
$$

             KEY
       WCI = WIND CHILL INDEX
       VSB = VISIBILITY
       HX  = HEAT INDEX
$$



USA.gov is the U.S. government's official web portal to all federal, state and local government web resources and services.